[[{"header":{"parameterUnit":"m.s-1","parameterCategory":1,"la1":30.2991,"la2":30.254,"lo1":-89.0895,"lo2":-89.0444,"dy":0.0017,"dx":0.0017,"nx":28,"ny":28,"refTime":"2025-04-10T09:00:00:Z","depth":0,"parameterNumber":2,"parameterNumberName":"U-component_of_WINDS"},"data":[0,0,0,0,0,0,0,0,0,0,0,0,0,0,0,0,0,0,0,0,0,0,0,0,0,0,0,0,0,0,0,0,0,0,0,0,0,0,0,0,0,0,0,0,0,0,0,0,0,0,0,0,0,0,0,0,0,0,1.9727,1.9728,0,1.9803,1.9804,1.9805,1.9734,1.9731,1.9728,1.9726,1.9808,1.9813,1.9817,0,0,0,0,0,0,0,0,0,0,0,0,0,1.9525,1.9529,1.9727,1.9728,1.9729,1.9803,1.9804,1.9805,1.9735,1.9731,1.9728,1.9724,1.9806,1.9812,1.9818,0,0,0,0,0,0,0,0,0,0,0,0,0,1.9608,1.953,1.9726,1.9702,1.9701,1.9803,1.9804,1.9805,1.9735,1.9731,1.9727,1.9723,1.9804,1.9811,1.9819,1.9949,0,0,1.9841,1.9844,0,0,0,0,0,0,0,0,1.9603,1.9615,1.9705,1.9704,1.9703,1.9754,1.9763,1.9854,1.9736,1.9722,1.9726,1.9721,1.9794,1.9802,1.9826,1.9953,1.9957,1.9842,1.9846,1.9849,1.9851,0,0,0,0,0,0,0,1.9598,1.9612,1.9757,1.9706,1.9705,1.9689,1.9696,1.978,1.9781,1.9723,1.9718,1.9728,1.9793,1.9819,1.9827,1.9958,1.9841,1.9848,1.9852,1.9855,2.0198,2.0202,0,0,0,0,0,0,1.9594,1.9607,1.9754,1.9759,1.9641,1.9696,1.9704,1.9742,1.978,1.9782,1.9732,1.9725,1.9808,1.9819,1.983,1.9986,1.9849,1.9856,1.986,2.0193,2.0199,2.0204,0,0,0,0,0,0,1.959,1.9608,1.9751,1.9682,1.9699,1.9704,1.9748,1.9746,1.9772,1.9787,1.9787,1.9758,1.9805,1.9819,1.992,1.9988,1.9859,1.9866,2.0188,2.0195,2.0202,2.0299,0,0,0,0,0,0,1.9584,1.9607,1.9655,1.9684,1.9703,1.984,1.9752,1.9751,1.9784,1.9776,1.9811,1.9813,1.9803,1.991,1.9927,1.9996,1.9871,2.0182,2.0191,2.0199,2.029,2.0309,2.0325,0,0,0,0,0,1.9577,1.968,1.9658,1.9676,1.9764,1.9844,1.9855,1.984,1.979,1.984,1.9849,1.9812,1.9977,1.992,1.994,2.0011,2.0177,2.0188,2.0199,2.0282,2.0305,2.0325,0,0,0,0,0,0,1.9661,1.9683,1.9659,1.9774,1.9807,1.9831,1.9893,1.9865,1.9914,1.9904,1.9885,1.9894,2.0,2.0016,1.9952,2.014,2.0069,2.0085,2.0126,2.0148,2.0166,2.016,1.9877,0,0,0,0,0,1.9692,1.9754,1.9771,1.9871,1.9889,1.9889,1.9923,1.9908,1.9943,1.9957,1.9974,2.001,2.007,2.011,2.0166,2.0292,2.0299,2.0351,2.0368,2.0382,2.0396,2.0465,2.0489,2.0239,2.0239,2.0239,0,0,1.9759,1.9779,1.9819,1.9888,1.9912,1.9978,1.9901,1.9973,2.0023,1.9968,2.0064,2.0078,2.0117,2.0231,2.0283,2.0248,2.0466,2.0396,2.0407,2.0413,2.0479,2.0502,2.0523,2.0246,2.0245,2.0244,0,0,1.9913,1.9934,2.002,2.0045,2.0082,2.0082,2.0103,2.0132,2.0138,2.0234,2.0195,2.0254,2.0358,2.0387,2.0416,2.0583,2.0551,2.0602,2.0693,2.0761,2.0781,2.0798,2.0859,2.0881,2.0615,2.0615,2.0616,0,1.9991,2.0087,2.0068,2.0144,2.0176,2.0129,2.0217,2.0243,2.0297,2.0322,2.0281,2.0411,2.0434,2.0555,2.0596,2.062,2.0645,2.0598,2.0779,2.0797,2.0813,2.087,2.0893,2.0621,2.0621,2.062,2.0619,0,2.0182,2.0249,2.0315,2.0367,2.0407,2.0488,2.0483,2.0526,2.0509,2.0513,2.0612,2.0638,2.0699,2.0726,2.071,2.0846,2.0823,2.0782,2.071,2.0843,2.0897,2.0919,2.063,2.0628,2.0626,2.0625,0,0,2.0391,2.0432,2.0457,2.048,2.0518,2.0571,2.0651,2.071,2.0747,2.0787,2.0855,2.0944,2.0906,2.0938,2.0925,2.0985,2.1117,2.0936,2.0937,2.097,2.127,2.1302,2.1328,2.1096,2.11,2.1103,2.1267,0,2.0548,2.0685,2.0671,2.0803,2.0866,2.0822,2.0892,2.0924,2.0931,2.0986,2.0994,2.1058,2.1002,2.1021,2.1078,2.1089,2.1177,2.1077,2.1161,2.1164,2.1153,2.1356,2.1389,2.1543,2.1288,2.1292,2.1294,0,2.0748,2.0794,2.0932,2.0961,2.0987,2.105,2.1103,2.1157,2.1193,2.1193,2.123,2.1207,2.129,2.1216,2.133,2.1262,2.1296,2.1307,2.1312,2.132,2.1238,2.137,2.1591,2.1615,2.1327,2.1324,2.1322,0,2.0889,2.0985,2.108,2.1101,2.1138,2.1183,2.1201,2.1232,2.1269,2.1316,2.134,2.1396,2.1428,2.1473,2.1466,2.1413,2.1584,2.1509,2.1588,2.1588,2.1626,2.1624,2.1857,2.1647,2.1646,2.1646,2.1645,0,2.1065,2.1152,2.1143,2.1202,2.1298,2.1281,2.1378,2.139,2.1419,2.148,2.1446,2.1505,2.1493,2.1552,2.1548,2.1644,2.1658,2.1662,2.166,2.1666,2.1666,2.1688,2.1678,2.1652,2.165,2.1649,2.1648,0,2.1238,2.1236,2.1337,2.1363,2.1372,2.1442,2.1465,2.1521,2.1524,2.1603,2.1621,2.1627,2.1695,2.1693,2.1771,2.1768,2.1886,2.1872,2.1874,2.1871,2.1951,2.1944,2.2207,2.2241,2.2008,2.201,2.2012,0,2.1351,2.1417,2.145,2.1488,2.1508,2.1571,2.1607,2.1594,2.1634,2.1681,2.1732,2.1797,2.1848,2.1959,2.1972,2.2031,2.2018,2.2106,2.2027,2.2031,2.2021,2.2017,2.2025,2.2122,2.2125,2.2127,2.2129,0,2.1553,2.1549,2.1603,2.1657,2.1702,2.1744,2.1783,2.1817,2.1808,2.1855,2.1923,2.1963,2.2042,2.2107,2.2165,2.2184,2.2156,2.2153,2.2175,2.2182,2.2181,2.2183,2.1917,2.2148,2.2146,2.2144,2.2143,2.2142,2.17,2.1757,2.1789,2.1851,2.1879,2.1916,2.197,2.1981,2.2037,2.2099,2.2089,2.2166,2.2202,2.2276,2.2301,2.2362,2.2331,2.2362,2.237,2.2378,2.2388,2.217,2.2372,2.2372,2.2371,2.2371,2.237,0,2.1901,2.192,2.1977,2.2032,2.2081,2.2048,2.209,2.2134,2.2201,2.2237,2.2287,2.2367,2.2431,2.2448,2.251,2.2556,2.2545,2.2573,2.257,2.2575,2.2411,2.2387,2.2581,2.2581,2.2581,2.2581,2.2581,2.2581,2.2012,2.2106,2.2106,2.2214,2.2232,2.2307,2.2334,2.2369,2.2397,2.2487,2.2539,2.2549,2.2578,2.2642,2.2699,2.2703,2.2728,2.2762,2.276,2.2607,2.2586,2.2566,2.2543,2.2767,2.2767,2.2919,2.292,2.2921]},{"header":{"parameterUnit":"m.s-1","parameterCategory":1,"la1":30.2991,"la2":30.254,"lo1":-89.0895,"lo2":-89.0444,"dy":0.0017,"dx":0.0017,"nx":28,"ny":28,"refTime":"2025-04-10T09:00:00:Z","depth":0,"parameterNumber":3,"parameterNumberName":"V-component_of_WINDS"},"data":[0,0,0,0,0,0,0,0,0,0,0,0,0,0,0,0,0,0,0,0,0,0,0,0,0,0,0,0,0,0,0,0,0,0,0,0,0,0,0,0,0,0,0,0,0,0,0,0,0,0,0,0,0,0,0,0,0,0,-1.3186,-1.3187,0,-1.3273,-1.3274,-1.3275,-1.3278,-1.3277,-1.3276,-1.3275,-1.3367,-1.3371,-1.3374,0,0,0,0,0,0,0,0,0,0,0,0,0,-1.3026,-1.3029,-1.3186,-1.3187,-1.3188,-1.3273,-1.3274,-1.3275,-1.3278,-1.3277,-1.3275,-1.3274,-1.3366,-1.337,-1.3374,0,0,0,0,0,0,0,0,0,0,0,0,0,-1.3102,-1.303,-1.3186,-1.32,-1.3202,-1.3272,-1.3274,-1.3275,-1.3278,-1.3277,-1.3275,-1.3273,-1.3365,-1.337,-1.3375,-1.3439,0,0,-1.3391,-1.3393,0,0,0,0,0,0,0,0,-1.3098,-1.3108,-1.3196,-1.3199,-1.3201,-1.3263,-1.3251,-1.333,-1.3279,-1.3249,-1.3275,-1.3273,-1.3334,-1.3342,-1.3362,-1.3443,-1.3447,-1.3391,-1.3394,-1.3397,-1.3398,0,0,0,0,0,0,0,-1.3093,-1.3105,-1.322,-1.3198,-1.3201,-1.3203,-1.3212,-1.3266,-1.33,-1.3252,-1.3252,-1.3262,-1.3335,-1.3357,-1.3364,-1.3449,-1.3391,-1.3396,-1.3399,-1.3401,-1.3587,-1.3589,0,0,0,0,0,0,-1.3084,-1.31,-1.3218,-1.3223,-1.3145,-1.3207,-1.3217,-1.3245,-1.3299,-1.3306,-1.3263,-1.3262,-1.3348,-1.3358,-1.3367,-1.3445,-1.3397,-1.3401,-1.3404,-1.3586,-1.3588,-1.359,0,0,0,0,0,0,-1.3081,-1.3095,-1.3214,-1.3162,-1.3177,-1.3211,-1.3242,-1.3247,-1.3269,-1.3308,-1.3314,-1.3279,-1.3348,-1.336,-1.3421,-1.3449,-1.3404,-1.3408,-1.3583,-1.3586,-1.3589,-1.3603,0,0,0,0,0,0,-1.3076,-1.3093,-1.3117,-1.3162,-1.318,-1.3265,-1.3244,-1.325,-1.3277,-1.3276,-1.3324,-1.3331,-1.3347,-1.3413,-1.3426,-1.3455,-1.3413,-1.3581,-1.3585,-1.3588,-1.36,-1.3606,-1.3611,0,0,0,0,0,-1.307,-1.3118,-1.3118,-1.3133,-1.321,-1.3267,-1.3277,-1.3294,-1.3279,-1.3304,-1.3329,-1.3329,-1.3444,-1.3419,-1.3434,-1.3465,-1.3579,-1.3584,-1.3588,-1.3598,-1.3605,-1.361,0,0,0,0,0,0,-1.3077,-1.3125,-1.3125,-1.3189,-1.3224,-1.3267,-1.3299,-1.3301,-1.3342,-1.3339,-1.336,-1.3371,-1.3431,-1.3454,-1.3426,-1.353,-1.351,-1.3517,-1.3512,-1.3519,-1.3525,-1.3518,-1.3417,0,0,0,0,0,-1.3086,-1.3127,-1.3167,-1.3219,-1.3236,-1.3265,-1.329,-1.33,-1.3338,-1.3353,-1.3382,-1.342,-1.3464,-1.3493,-1.3536,-1.3603,-1.3614,-1.3632,-1.3637,-1.3641,-1.3648,-1.3685,-1.3694,-1.3603,-1.3603,-1.3603,0,0,-1.3105,-1.3136,-1.316,-1.3221,-1.3249,-1.3292,-1.3277,-1.3323,-1.3356,-1.336,-1.3419,-1.3442,-1.3486,-1.355,-1.358,-1.3571,-1.3675,-1.3647,-1.365,-1.3654,-1.369,-1.3699,-1.3706,-1.3606,-1.3606,-1.3605,0,0,-1.316,-1.3188,-1.3234,-1.3263,-1.3305,-1.3324,-1.3335,-1.3378,-1.3394,-1.3453,-1.3457,-1.3497,-1.3573,-1.3603,-1.3629,-1.3696,-1.3698,-1.371,-1.3738,-1.3774,-1.3781,-1.3788,-1.3812,-1.382,-1.3716,-1.3716,-1.3716,0,-1.3179,-1.3242,-1.3258,-1.3305,-1.3331,-1.3336,-1.3384,-1.3411,-1.3466,-1.3485,-1.3474,-1.357,-1.3599,-1.3671,-1.3687,-1.3708,-1.3722,-1.3705,-1.3779,-1.3785,-1.3792,-1.3815,-1.3824,-1.3717,-1.3717,-1.3717,-1.3717,0,-1.3263,-1.3307,-1.334,-1.3391,-1.3422,-1.3469,-1.3493,-1.3523,-1.353,-1.355,-1.3611,-1.3646,-1.3697,-1.3714,-1.3723,-1.3788,-1.3781,-1.3774,-1.3754,-1.3801,-1.3823,-1.3833,-1.3719,-1.3719,-1.3718,-1.3718,0,0,-1.3325,-1.3385,-1.3396,-1.342,-1.3467,-1.3502,-1.355,-1.3598,-1.3623,-1.3661,-1.3702,-1.3766,-1.376,-1.3789,-1.3801,-1.3833,-1.3884,-1.3822,-1.3824,-1.3833,-1.3958,-1.3963,-1.3973,-1.3885,-1.3887,-1.3889,-1.3955,0,-1.3386,-1.3469,-1.3485,-1.3558,-1.3599,-1.3605,-1.3646,-1.368,-1.37,-1.374,-1.3762,-1.3807,-1.3796,-1.3814,-1.3845,-1.3871,-1.391,-1.3867,-1.3925,-1.3926,-1.3913,-1.3985,-1.399,-1.405,-1.3963,-1.3965,-1.3966,0,-1.3468,-1.3507,-1.3583,-1.3625,-1.3643,-1.368,-1.3725,-1.3762,-1.3802,-1.3814,-1.3846,-1.3855,-1.3905,-1.3883,-1.3954,-1.3924,-1.3949,-1.3966,-1.3968,-1.3974,-1.3949,-1.3993,-1.407,-1.4079,-1.398,-1.3979,-1.3978,0,-1.3506,-1.3577,-1.3632,-1.3652,-1.3702,-1.3728,-1.375,-1.3788,-1.3816,-1.3856,-1.3875,-1.3921,-1.3946,-1.3982,-1.4003,-1.3985,-1.4072,-1.4052,-1.4085,-1.4084,-1.4103,-1.4102,-1.4185,-1.4119,-1.4119,-1.4119,-1.4119,0,-1.3572,-1.3619,-1.365,-1.3683,-1.3736,-1.3755,-1.3807,-1.3829,-1.3863,-1.3902,-1.391,-1.3947,-1.3972,-1.4013,-1.403,-1.4086,-1.4097,-1.411,-1.4114,-1.4109,-1.4107,-1.4126,-1.4122,-1.4121,-1.4121,-1.412,-1.412,0,-1.3623,-1.3646,-1.3706,-1.3748,-1.376,-1.3797,-1.3834,-1.3867,-1.3888,-1.3937,-1.395,-1.3982,-1.403,-1.4055,-1.4116,-1.4127,-1.419,-1.4192,-1.4177,-1.4178,-1.421,-1.4207,-1.4308,-1.4323,-1.4246,-1.4247,-1.4248,0,-1.3664,-1.37,-1.3746,-1.3772,-1.3794,-1.3836,-1.3865,-1.3885,-1.3914,-1.3962,-1.399,-1.4038,-1.4078,-1.4155,-1.4185,-1.4232,-1.4234,-1.4267,-1.4242,-1.4236,-1.4235,-1.4233,-1.4237,-1.4271,-1.4272,-1.4273,-1.4273,0,-1.3734,-1.3743,-1.3783,-1.3827,-1.386,-1.3896,-1.3931,-1.3952,-1.3978,-1.4011,-1.406,-1.4091,-1.4152,-1.4201,-1.425,-1.4274,-1.4279,-1.4281,-1.4291,-1.4287,-1.4276,-1.4282,-1.4189,-1.4278,-1.4278,-1.4277,-1.4277,-1.4277,-1.3781,-1.3813,-1.385,-1.3895,-1.3923,-1.3956,-1.3989,-1.4014,-1.4054,-1.4105,-1.4115,-1.4167,-1.4206,-1.4272,-1.4298,-1.434,-1.4333,-1.4347,-1.4351,-1.4355,-1.4356,-1.4269,-1.4349,-1.4349,-1.4348,-1.4348,-1.4348,0,-1.3852,-1.3876,-1.3916,-1.3965,-1.4,-1.3999,-1.4039,-1.4068,-1.4114,-1.4149,-1.4188,-1.4245,-1.4292,-1.4325,-1.4373,-1.44,-1.4403,-1.4412,-1.4411,-1.4416,-1.4359,-1.4346,-1.4409,-1.4409,-1.4409,-1.4409,-1.4409,-1.4409,-1.3892,-1.3946,-1.396,-1.4029,-1.4053,-1.4103,-1.4126,-1.4157,-1.4185,-1.4247,-1.4286,-1.4307,-1.4342,-1.4393,-1.4437,-1.4445,-1.4463,-1.4471,-1.448,-1.4427,-1.442,-1.4414,-1.4401,-1.4475,-1.4475,-1.4534,-1.4534,-1.4535]}]]